Theta_e
306 297 293 293 296 298 301 301 301 303 304 304 303 303 301 301 303 304 306 305 305 304 303 304 305 304 305 307 309 309 308 305 305 306 307 308 308 308 308 308 308 308 310 316 319 320 322 325 327 328 329 329 330 330 330 329 330 330 329 329 328 329 330 330 330 329 328 327 327 327 326 325 326 325 326 326 327 327 328 328 329 329 329 331 330 329
305 295 295 298 300 301 302 304 303 302 303 303 302 302 301 302 301 305 305 305 304 303 304 305 303 304 306 308 309 309 308 306 306 306 307 308 309 309 310 310 310 310 311 312 311 312 315 320 324 326 328 326 327 328 329 329 329 330 330 329 329 329 329 329 329 330 329 329 328 327 326 327 327 326 325 325 326 327 328 328 329 328 329 329 330 328
296 293 297 301 303 303 303 302 303 302 301 302 300 301 300 301 304 305 305 303 302 301 302 301 301 303 305 307 309 308 308 308 309 309 309 309 310 310 310 310 311 312 311 312 311 312 312 316 319 323 326 327 328 328 328 329 330 330 330 330 330 329 329 329 329 330 329 330 330 330 329 328 327 329 328 328 327 328 327 328 328 328 328 328 328 329
291 294 299 304 304 301 300 301 301 301 301 300 300 299 298 303 300 298 303 302 300 303 300 301 300 303 306 307 308 309 308 308 309 309 310 310 310 311 312 312 312 312 313 312 313 312 312 313 315 319 323 325 327 327 328 329 329 329 329 330 330 330 329 329 329 328 331 331 332 331 331 331 329 328 328 328 328 328 328 327 328 328 328 328 327 328
293 298 303 304 303 301 298 299 298 297 295 299 299 300 300 302 302 302 302 302 299 299 299 300 301 302 304 303 305 308 309 308 308 308 308 310 311 312 313 314 315 314 314 313 313 314 314 313 312 314 319 324 326 327 328 329 329 329 330 330 330 330 330 329 328 328 330 330 330 329 329 329 328 328 328 327 326 327 326 326 327 326 327 327 327 327
297 302 306 302 302 301 300 298 298 297 293 296 299 300 302 304 303 303 301 301 300 300 300 301 295 296 304 305 306 309 310 307 309 308 308 309 309 310 309 310 312 314 314 313 313 314 315 314 314 313 316 321 324 325 328 329 330 330 330 331 331 331 330 329 329 328 328 328 327 326 324 321 322 322 322 322 323 324 324 324 327 327 327 327 327 327
298 302 303 300 300 300 299 298 300 299 295 294 296 302 302 304 303 303 301 302 296 294 301 304 294 291 303 303 306 308 308 308 310 308 309 310 311 310 310 310 311 311 312 313 313 314 314 315 315 315 314 317 320 323 327 329 329 330 330 331 331 331 330 330 329 329 327 327 326 326 325 324 323 323 324 326 327 328 327 327 326 326 327 327 327 327
299 298 299 299 299 298 297 295 299 300 296 293 303 304 303 303 303 303 302 302 300 302 300 298 301 294 294 301 306 308 306 307 308 309 310 310 311 312 313 313 313 313 312 313 313 313 314 315 316 315 315 314 316 320 325 327 328 329 329 330 330 330 329 330 330 328 327 326 326 326 326 325 325 325 326 327 327 329 329 327 327 327 327 327 327 327
299 297 297 296 297 296 295 298 301 301 297 298 303 305 303 303 304 304 303 301 302 300 296 297 299 294 293 300 306 306 303 304 305 308 310 311 312 312 313 314 315 315 314 314 314 314 314 314 315 316 316 315 315 318 322 324 325 328 329 330 330 330 330 330 330 328 328 326 327 327 326 325 326 327 328 329 329 328 328 328 327 327 327 327 327 327
300 300 299 299 298 294 299 302 302 302 297 301 305 307 306 306 305 304 302 301 299 296 290 297 298 291 292 300 301 304 302 302 304 307 309 311 312 313 314 314 314 314 315 315 314 315 316 317 317 317 317 316 314 316 319 321 324 327 328 328 328 329 330 330 330 328 328 327 326 327 327 326 326 326 327 328 328 327 328 327 327 327 326 326 326 326
304 305 305 301 298 300 302 303 304 302 303 307 306 303 300 297 297 298 301 300 296 288 292 298 298 296 289 297 300 300 301 304 306 307 309 311 312 314 315 316 316 314 314 314 315 315 316 317 318 317 315 315 315 316 315 316 321 324 326 327 327 328 329 330 330 329 328 327 327 326 327 327 326 327 326 326 326 327 327 326 326 326 326 326 326 326
301 302 301 302 305 304 305 300 303 304 304 303 300 298 298 295 297 293 291 296 288 286 293 299 298 298 288 294 302 305 307 307 306 306 307 309 311 312 314 315 315 315 315 315 314 314 315 315 315 316 314 314 314 314 313 315 318 320 323 325 325 326 328 329 329 329 328 327 327 327 327 327 327 327 327 326 326 326 326 326 325 326 326 325 326 326
295 297 301 303 305 304 301 298 298 301 301 301 298 298 291 287 288 284 287 283 285 287 294 299 299 294 293 298 303 304 306 307 308 308 308 309 311 313 314 315 316 316 315 315 315 314 314 314 314 314 313 314 314 313 312 313 315 318 321 323 324 324 327 328 329 328 328 327 327 326 326 327 327 327 327 327 326 327 326 326 325 326 325 325 324 324
291 298 300 300 302 304 303 294 292 292 298 298 295 293 289 285 283 283 285 287 287 291 297 296 300 293 298 300 305 304 307 309 310 310 312 312 312 313 315 316 315 316 315 314 314 315 314 314 315 314 314 314 314 314 314 313 314 315 318 321 322 323 326 327 328 328 328 327 327 327 327 327 327 327 327 327 327 327 327 327 326 326 325 325 324 325
284 284 292 297 293 304 302 300 298 296 298 297 300 298 292 290 286 283 286 283 285 289 292 298 293 289 292 297 302 304 308 310 311 312 313 314 314 314 312 309 309 311 312 314 313 313 313 314 314 315 314 314 314 314 314 313 313 314 316 318 320 321 324 326 327 328 327 327 327 327 327 327 327 327 327 327 328 328 327 327 327 327 327 326 326 326
288 289 298 302 302 304 300 304 304 301 298 299 300 302 295 291 298 290 291 291 290 290 287 290 291 297 297 305 305 306 305 304 304 305 304 305 306 308 309 309 310 310 310 311 311 312 312 313 313 313 313 313 313 313 314 313 313 314 315 316 318 320 323 325 326 327 327 327 328 328 327 327 327 326 327 327 327 327 328 328 327 327 327 327 327 327
289 287 299 301 306 303 302 304 302 304 288 296 298 292 295 302 300 291 288 287 290 290 288 293 293 297 303 304 306 307 305 305 306 305 305 305 307 308 308 310 311 311 311 312 311 310 310 310 310 310 310 311 311 312 312 312 313 313 314 315 316 318 321 323 325 326 327 328 328 327 327 327 326 326 326 326 327 327 328 328 328 327 327 328 328 328
289 289 299 298 296 304 306 306 304 304 305 299 291 296 300 300 303 293 287 288 288 286 288 292 289 293 294 291 305 304 304 306 306 306 306 306 307 305 307 308 310 311 312 311 311 311 310 310 310 309 309 309 310 310 310 310 311 312 313 314 315 317 318 321 323 324 326 327 327 327 327 327 327 326 326 327 327 328 327 328 328 328 327 327 327 328
298 288 293 299 299 303 306 305 300 304 301 299 296 305 296 289 288 290 290 283 282 283 286 289 292 293 296 295 298 301 303 304 306 308 308 307 307 305 306 307 307 309 309 309 309 310 310 310 310 310 309 309 308 308 309 310 310 310 310 312 313 315 318 319 322 324 325 327 327 328 327 327 327 327 327 327 327 328 327 327 327 327 327 327 327 326
298 288 290 299 299 301 302 300 289 295 299 298 301 299 300 296 291 289 289 290 290 284 285 285 290 288 298 298 302 302 304 306 307 307 308 309 310 309 310 312 311 308 307 308 308 309 310 310 310 309 309 308 308 307 307 307 308 307 308 309 311 313 316 318 321 323 323 325 326 327 327 327 327 327 327 327 327 326 326 326 327 326 326 326 327 326
292 295 285 293 300 299 291 296 293 296 292 292 295 293 292 292 295 295 294 291 288 286 286 286 285 290 297 303 302 303 305 306 307 307 308 309 310 311 312 313 314 310 309 308 308 307 307 307 307 306 306 305 306 306 305 305 305 306 307 308 310 311 313 316 318 320 322 324 325 325 326 326 327 327 327 327 327 326 326 326 325 326 326 326 326 326
291 290 286 290 291 291 294 301 300 300 299 296 295 293 294 292 289 287 285 294 292 290 286 287 284 292 301 303 305 305 306 307 309 309 310 311 311 312 313 312 309 309 309 310 309 307 307 306 305 304 304 303 302 302 301 302 303 304 306 308 310 311 312 314 317 320 322 323 325 325 325 326 327 327 327 326 326 325 325 326 325 326 326 325 326 326
297 292 291 287 289 293 298 302 304 304 303 301 299 296 299 298 296 290 285 288 292 292 292 290 288 291 303 303 305 306 307 307 309 309 308 310 311 311 311 309 309 309 310 308 306 305 305 304 304 303 302 302 301 301 301 302 302 303 305 307 310 311 313 315 316 319 321 322 323 324 325 326 326 326 326 325 325 324 324 325 325 326 325 325 326 326
296 290 286 287 292 295 297 298 300 302 302 298 298 295 298 294 295 293 292 294 290 291 290 290 287 292 299 302 304 304 306 307 307 307 308 308 309 309 308 306 305 304 303 303 304 303 302 301 301 300 300 300 300 300 301 302 302 303 304 306 308 310 312 314 316 318 319 320 322 323 324 324 325 325 324 323 324 323 324 324 325 325 325 325 325 324
289 288 290 285 285 286 289 294 293 296 299 295 295 297 298 299 298 293 290 288 289 290 291 289 284 291 301 300 299 298 300 301 303 303 304 307 308 308 307 306 305 305 304 303 303 302 301 299 298 299 300 301 302 302 302 301 301 301 302 304 306 308 312 314 316 317 318 319 320 321 322 322 323 322 322 322 323 323 324 324 325 325 324 324 324 324
293 290 288 284 281 279 279 280 283 286 290 295 297 298 298 298 297 292 288 287 285 289 291 289 289 297 297 296 298 298 297 299 302 302 299 301 305 306 307 307 304 302 303 303 302 301 301 301 301 300 300 301 302 302 302 302 301 301 302 303 304 306 308 310 313 314 316 317 318 319 319 320 320 320 320 321 322 323 324 324 324 324 322 322 322 322
291 292 291 289 288 286 289 292 297 297 294 290 294 296 296 298 299 297 294 289 286 289 289 292 294 295 295 296 296 297 297 299 302 301 300 301 300 300 301 301 301 302 302 301 300 300 300 299 300 300 299 300 301 301 303 302 302 301 301 302 302 303 305 306 308 310 312 314 315 316 316 317 318 318 319 320 321 322 323 323 322 321 319 318 319 319
288 289 292 292 292 293 295 293 298 297 293 294 294 294 297 297 298 295 291 288 295 291 286 294 296 293 295 298 298 298 298 299 302 303 302 301 301 303 303 301 296 298 299 300 300 300 301 303 303 301 300 300 301 302 302 302 303 304 303 303 302 300 301 303 304 306 308 311 312 313 315 315 316 317 317 318 318 318 318 319 319 318 318 315 314 316
288 286 292 293 291 294 294 293 295 296 296 295 295 296 294 296 296 292 293 296 296 290 288 295 296 294 296 299 300 300 301 300 300 301 302 302 300 300 299 300 302 302 304 304 303 304 304 304 304 303 302 302 301 301 302 301 300 300 300 301 302 301 300 300 301 303 305 307 309 311 313 314 314 315 314 313 313 313 313 314 314 314 313 312 312 313
292 286 288 291 291 293 292 292 293 293 294 294 295 296 296 295 295 296 295 297 297 294 295 296 297 297 299 300 302 302 302 302 301 301 299 298 299 301 301 300 302 305 305 304 306 305 303 303 303 303 303 302 301 302 302 301 302 302 302 302 301 300 300 299 299 301 303 304 306 309 311 312 312 312 312 310 309 310 310 310 310 310 309 309 309 310
293 287 289 287 285 286 289 292 293 293 293 292 295 296 296 296 295 296 295 297 297 295 296 296 296 296 301 304 304 305 304 303 302 299 299 301 301 299 299 301 303 304 305 305 304 303 303 303 303 301 299 300 301 302 302 303 303 302 301 302 301 300 300 299 299 300 301 303 305 306 308 308 308 308 308 308 307 307 307 307 307 307 307 307 305 306
293 289 290 286 283 284 287 288 289 290 290 289 291 294 294 294 292 294 293 297 295 293 296 296 294 295 301 305 304 302 302 301 300 301 301 301 300 298 299 300 302 303 304 304 303 303 303 304 302 301 300 300 300 301 301 301 301 300 300 301 301 301 299 298 299 300 300 301 303 304 304 304 305 305 306 305 304 305 305 304 303 304 304 303 301 301
291 290 286 285 283 282 286 288 287 287 285 284 286 291 294 296 296 297 298 299 299 299 295 291 293 300 303 303 302 301 300 300 300 301 302 303 304 302 301 300 302 302 303 302 302 303 305 303 304 305 303 302 302 301 300 300 300 301 302 301 301 300 298 298 299 300 301 302 301 302 302 302 303 303 304 304 303 303 301 300 300 300 300 301 302 299
293 291 287 289 282 283 286 286 287 283 277 278 297 298 298 296 296 295 295 298 300 300 298 301 300 303 301 302 302 302 302 301 301 303 306 306 305 304 301 300 301 301 302 302 301 303 304 304 303 303 303 303 304 303 303 301 302 303 302 302 300 299 299 299 299 300 301 302 302 301 301 301 301 301 302 303 302 300 299 298 298 300 300 299 298 299
290 290 288 288 284 283 286 285 282 276 278 292 298 300 300 300 300 298 299 300 300 301 301 301 302 302 304 304 304 304 305 305 304 303 303 304 306 306 306 302 300 301 301 302 302 301 301 301 303 302 301 301 299 300 299 298 300 300 299 299 299 299 300 299 300 300 300 301 301 301 301 301 301 301 301 301 299 298 298 298 299 298 298 298 298 299
290 289 289 287 287 288 285 283 276 278 288 293 297 299 301 301 299 295 294 298 301 301 301 300 302 303 304 305 304 303 303 302 303 305 306 307 306 306 306 307 307 301 301 302 301 303 303 302 302 302 303 303 301 299 298 300 299 299 300 299 300 299 300 300 299 300 300 300 300 301 301 301 300 300 300 300 298 296 296 296 297 297 296 296 297 297
292 292 290 286 289 282 284 284 282 290 288 291 293 293 295 292 293 291 287 292 299 302 302 301 302 303 304 304 305 305 298 300 300 303 306 305 308 309 308 308 309 308 304 305 305 304 305 304 303 304 305 304 304 303 302 301 300 300 300 298 298 298 298 298 299 300 300 299 300 300 301 300 300 300 299 298 296 295 295 294 295 295 296 295 295 296
292 289 289 287 285 288 284 282 283 282 279 286 294 299 299 299 299 298 293 289 298 301 302 302 301 302 303 304 304 304 302 300 299 302 307 307 306 308 308 309 310 310 309 308 306 305 305 304 303 302 302 303 303 303 303 300 300 300 300 300 299 297 297 297 299 300 300 300 301 301 301 300 300 299 298 297 295 295 295 295 296 295 295 295 295 295
286 289 286 286 286 286 284 281 281 279 283 293 295 297 301 301 299 298 291 286 294 292 300 302 301 303 304 304 304 303 299 294 297 302 299 306 305 306 307 307 308 309 309 309 307 306 305 305 305 304 301 300 300 302 301 300 299 299 299 300 300 298 298 298 299 300 300 300 301 301 301 300 299 298 297 296 296 296 295 295 294 293 295 295 296 296
285 286 286 284 282 284 285 283 281 285 286 291 294 295 296 301 301 296 282 284 294 291 291 293 296 293 292 295 300 299 298 295 298 296 295 297 299 304 306 307 307 307 307 308 308 308 307 306 304 302 301 301 302 302 300 299 299 298 300 301 300 298 298 299 299 300 301 301 301 301 300 299 297 298 297 296 296 296 296 293 294 293 293 294 295 295
284 284 285 282 284 284 283 282 285 286 292 292 293 295 293 300 298 287 282 289 288 289 290 292 290 291 293 294 298 298 293 291 291 292 294 294 296 298 298 298 300 302 303 305 305 299 304 305 305 304 304 303 299 299 298 298 298 298 299 299 298 297 299 300 301 300 300 300 300 300 299 299 298 297 296 295 295 294 293 294 294 293 292 291 292 293
284 285 285 286 283 282 284 282 282 286 292 293 292 294 297 296 285 284 289 287 289 288 290 291 289 290 291 290 290 289 291 292 292 292 292 292 293 294 294 295 296 298 298 298 296 294 293 294 298 300 300 298 298 296 295 296 296 297 297 297 297 298 300 299 299 300 300 299 299 298 298 297 297 294 293 292 293 292 293 293 292 292 292 292 292 290
284 283 281 282 285 286 284 281 281 277 286 290 293 291 292 290 290 291 287 287 289 289 289 289 290 289 290 289 290 290 290 291 291 291 292 292 292 292 293 293 293 294 294 294 294 294 291 293 294 295 296 296 295 296 295 294 293 296 296 296 297 299 299 300 299 299 298 298 297 293 292 293 292 292 292 291 291 291 291 291 290 290 290 290 290 290
290 284 284 285 288 281 282 279 280 287 289 289 293 290 288 289 291 290 290 287 289 289 289 289 289 289 290 290 289 289 290 290 290 290 291 291 292 292 293 293 293 293 293 294 293 292 291 293 293 293 293 294 294 293 292 292 293 294 293 296 299 299 298 298 296 295 293 291 291 292 291 290 290 291 291 291 291 291 290 291 290 290 290 290 290 291
289 287 289 285 290 287 284 288 287 286 290 292 291 289 290 290 291 290 290 289 288 288 290 289 288 290 290 290 290 289 289 289 289 290 290 290 291 291 291 292 292 292 292 292 292 291 290 291 291 292 292 293 292 293 292 290 290 289 289 295 297 296 295 293 291 290 290 290 290 290 290 290 290 290 290 290 291 290 291 289 289 290 290 289 290 290
287 289 289 289 286 290 290 291 290 289 289 290 291 292 290 290 291 291 290 289 289 289 290 290 290 290 290 290 290 289 289 289 289 290 290 290 290 291 291 292 292 292 292 291 291 290 290 290 289 290 290 291 292 291 290 291 288 288 291 294 294 293 290 289 288 288 288 289 289 289 289 288 288 289 289 289 291 291 292 291 290 290 291 290 290 290
287 288 289 288 288 288 282 289 288 288 289 289 289 289 291 291 291 291 290 290 290 290 290 290 291 291 290 290 289 289 289 289 289 289 289 290 289 290 290 290 291 291 290 291 291 288 289 288 288 288 288 288 291 290 290 289 289 290 291 289 290 289 287 287 287 288 288 288 289 289 288 288 290 291 289 289 291 291 291 293 292 290 291 291 290 290
285 290 288 286 287 286 286 288 290 291 290 290 289 288 287 289 289 290 292 292 291 291 291 291 291 290 291 289 289 289 289 289 288 288 289 290 290 290 289 290 290 290 290 290 290 288 288 288 287 288 288 289 291 290 289 289 289 288 288 288 288 287 286 286 287 288 288 288 289 290 290 289 288 289 291 290 290 291 291 292 291 292 291 291 291 291
289 290 286 287 285 285 287 287 287 288 288 288 289 290 289 289 289 289 290 290 290 290 290 290 291 291 291 290 290 289 288 289 288 288 288 289 289 289 289 289 290 289 290 289 289 288 289 288 287 287 287 289 291 289 288 288 288 288 287 287 287 286 286 287 287 287 287 288 289 289 290 290 290 290 291 291 289 291 292 292 291 291 291 292 293 293
288 285 288 288 284 283 283 284 288 283 282 286 287 287 288 289 289 289 289 289 289 289 290 290 289 291 291 291 290 289 288 288 288 288 287 288 288 289 289 289 289 289 289 289 288 288 287 287 287 287 287 289 290 289 288 288 288 287 287 287 286 286 286 286 287 287 288 288 289 289 290 290 291 290 290 290 290 289 289 288 288 290 291 292 289 288
287 287 288 285 286 286 289 289 291 292 290 288 288 289 288 288 287 287 287 288 289 289 290 289 289 288 289 290 290 289 288 288 288 289 288 287 288 289 289 289 288 288 288 288 287 287 287 287 287 287 287 289 289 288 288 288 288 287 287 287 286 285 285 285 287 289 290 289 289 290 289 290 290 289 290 290 291 290 290 290 289 287 287 288 288 288
Wind_Speed
9 8 8 11 10 16 17 21 22 17 10 15 17 15 16 15 10 2 7 3 5 7 15 16 16 15 18 18 15 13 8 7 9 11 11 12 11 11 11 12 12 13 16 7 7 11 10 10 10 11 10 11 12 13 13 14 15 15 14 13 15 13 13 12 12 13 13 14 13 13 14 13 12 11 12 11 11 11 11 12 13 12 12 13 13 13
11 11 13 12 14 16 18 18 19 17 20 19 14 19 17 14 16 11 12 4 3 10 10 12 14 17 17 18 15 12 12 14 14 13 13 14 13 11 13 14 14 14 8 5 10 12 10 10 11 11 10 12 14 14 15 16 16 16 16 16 14 12 14 14 14 13 14 14 13 13 14 13 12 12 11 12 12 12 11 13 13 13 13 13 12 13
13 16 17 16 16 15 15 18 20 21 22 18 12 12 10 14 10 3 8 4 4 5 11 3 11 14 16 19 17 16 14 12 13 14 15 16 16 12 11 13 13 11 11 10 12 12 10 11 12 11 11 12 15 15 16 17 15 16 15 15 14 13 14 14 15 13 13 12 12 12 9 12 11 11 11 11 11 11 12 13 13 13 13 14 14 15
12 15 19 17 14 16 17 18 21 22 20 18 17 13 14 11 13 13 7 5 5 7 2 2 11 13 14 16 19 15 13 12 14 17 18 16 17 18 17 15 12 14 14 14 14 14 12 12 11 11 11 13 12 13 13 14 16 14 14 15 15 14 15 13 15 14 13 12 11 11 8 9 9 9 10 11 11 13 14 14 14 14 14 15 15 15
17 10 18 16 16 19 20 19 19 16 18 18 19 18 16 13 15 16 6 5 2 5 2 8 13 15 15 15 15 14 15 15 15 16 17 17 16 17 17 15 14 17 16 14 16 16 14 11 12 14 14 12 12 13 14 14 15 12 17 16 16 15 16 14 14 15 13 10 9 8 8 7 9 9 9 11 12 14 14 13 15 16 16 16 15 15
11 10 12 14 16 19 21 20 19 15 15 15 21 18 17 10 12 10 8 8 5 11 9 7 11 17 13 19 20 15 12 16 16 18 19 18 17 16 19 19 19 17 15 16 16 16 15 14 13 12 11 12 13 14 15 15 16 15 14 16 16 15 14 14 15 15 14 12 12 11 12 11 12 13 13 15 16 15 16 18 14 13 16 16 15 15
9 12 10 14 15 15 19 20 19 18 14 14 16 18 19 10 13 11 10 8 12 15 6 12 14 17 3 12 15 14 17 19 14 18 19 18 16 16 16 17 18 16 15 14 16 15 15 15 14 14 13 14 15 15 13 13 14 16 14 15 17 15 13 13 14 16 13 13 12 15 15 14 14 15 14 14 12 11 11 12 14 14 14 16 16 15
8 14 11 14 13 13 14 17 15 18 15 15 10 18 19 15 16 15 14 14 10 3 4 5 9 16 17 16 11 11 13 15 17 17 17 17 17 19 18 19 18 15 15 13 15 18 18 18 16 16 15 14 15 14 11 12 13 15 17 16 16 14 13 12 13 15 15 15 14 15 16 14 14 14 14 14 12 10 9 12 13 13 13 15 15 15
21 16 21 22 16 14 17 16 12 18 15 9 11 16 22 21 22 15 14 13 11 3 13 8 4 8 16 8 12 13 16 19 21 19 17 17 18 19 20 19 18 16 16 16 14 17 19 19 18 16 14 14 14 10 12 13 13 14 15 14 14 14 13 12 14 15 17 16 15 16 14 14 14 14 12 8 8 9 10 11 10 11 12 13 15 15
10 19 22 20 16 18 14 16 15 17 16 15 6 13 15 13 12 15 14 14 4 6 17 15 12 11 21 10 9 14 19 22 20 19 21 20 20 18 16 16 16 14 14 15 19 19 19 18 16 15 13 8 10 10 10 10 10 11 12 14 15 16 14 14 16 16 18 18 15 15 16 17 14 12 11 10 9 10 9 10 11 11 10 11 12 14
3 9 14 13 16 12 12 11 13 18 20 6 13 10 5 5 1 3 3 9 5 15 18 16 16 14 20 14 14 12 16 16 13 13 13 17 19 20 20 16 13 14 14 13 16 18 18 16 13 7 11 15 11 7 11 12 12 12 13 15 17 18 15 15 17 17 18 17 16 16 17 18 16 15 12 11 12 10 10 11 11 11 11 11 12 12
8 4 9 4 10 11 9 9 11 15 11 11 8 12 9 4 3 1 0 2 11 12 16 15 16 17 16 17 12 18 12 14 16 16 16 16 19 18 15 12 14 15 13 13 14 14 16 14 10 8 12 14 14 10 11 12 12 13 14 14 17 17 17 15 15 16 17 15 17 16 16 17 16 14 12 14 14 12 13 12 11 10 10 11 12 12
15 11 6 8 11 17 13 11 10 8 9 14 9 12 16 4 5 11 5 11 10 9 12 15 15 10 23 25 6 3 12 9 11 13 15 17 16 16 15 16 13 11 11 11 11 12 11 11 12 13 16 13 12 13 15 14 13 13 13 16 17 18 18 16 16 17 17 16 17 17 17 16 14 15 15 14 13 11 11 11 11 11 11 10 12 14
13 11 13 12 9 13 14 16 8 9 13 14 14 14 14 9 13 9 7 2 1 8 12 4 19 15 16 17 20 22 14 7 10 13 13 13 15 15 14 11 10 8 10 10 10 9 10 11 12 14 14 12 12 13 12 12 12 12 12 15 17 18 17 17 16 18 18 19 18 17 17 15 13 15 15 14 13 13 11 10 12 12 11 11 13 13
14 16 17 18 12 15 16 15 16 11 14 17 12 15 14 10 6 12 11 13 14 10 2 8 11 7 10 7 6 4 13 14 9 10 10 8 7 6 3 4 4 7 9 8 8 10 13 13 12 9 9 9 10 12 11 10 12 11 12 14 17 16 15 17 17 16 18 17 18 16 16 15 13 14 13 13 12 12 12 11 12 12 11 11 11 11
22 10 8 24 12 24 23 19 17 14 12 14 14 9 13 17 5 10 4 7 9 9 3 8 7 5 12 6 4 4 3 4 4 7 5 10 10 10 9 9 10 10 9 7 9 11 13 10 7 7 8 9 9 11 9 11 10 11 13 13 15 16 14 15 16 16 17 16 14 17 17 17 15 13 12 11 11 12 12 12 12 12 12 11 10 9
5 15 9 15 5 21 24 20 16 17 14 10 10 17 11 2 12 3 2 3 4 2 10 6 5 15 9 16 16 12 4 7 7 8 7 11 12 8 10 11 11 9 9 8 9 9 11 8 9 9 9 8 9 9 10 11 10 12 11 11 14 14 13 14 15 16 15 15 15 16 16 16 16 16 16 14 14 14 12 12 11 11 11 11 10 9
10 9 14 20 19 17 21 18 16 21 8 10 15 11 2 4 1 5 7 5 7 11 7 9 13 13 6 12 6 20 15 12 12 11 11 13 8 8 11 10 9 9 10 10 10 10 9 8 9 8 8 10 10 10 10 11 10 9 10 12 13 12 15 15 14 15 14 15 15 15 16 16 16 15 15 14 13 12 12 11 10 10 10 11 11 9
3 7 7 18 18 17 17 17 14 15 1 11 15 14 14 9 12 6 4 10 9 10 5 6 13 16 13 15 4 9 17 19 21 17 14 13 9 11 11 9 8 9 7 8 10 9 8 9 9 9 9 9 10 9 9 8 9 9 9 10 11 13 14 14 12 13 12 13 11 11 14 16 15 14 13 13 13 11 12 12 11 11 12 10 10 10
4 7 3 12 16 11 9 11 16 14 6 2 2 10 2 2 10 13 10 2 6 9 6 17 11 13 12 15 11 9 15 15 13 11 13 16 15 12 11 8 7 8 8 8 9 9 9 9 9 8 8 9 10 9 8 8 7 9 10 10 12 12 11 12 14 12 13 13 12 11 11 12 13 13 13 12 12 12 12 12 11 12 12 12 10 11
5 3 7 5 8 15 13 12 14 15 14 8 7 8 3 3 3 2 3 11 5 7 12 8 14 13 14 10 13 16 13 13 13 10 9 10 12 12 13 13 7 4 5 7 8 7 8 8 8 8 8 8 7 6 6 8 10 10 10 12 12 13 14 15 14 14 13 12 12 13 14 13 13 14 12 12 12 12 12 11 11 16 14 10 13 11
7 6 12 2 10 16 11 12 22 22 20 17 17 16 17 16 10 15 11 4 8 9 8 10 16 11 3 6 12 16 15 16 14 10 9 10 12 10 6 4 3 6 8 8 7 7 7 7 7 7 5 5 6 7 9 8 8 10 11 11 11 12 12 13 13 12 11 11 10 13 13 13 12 12 11 13 16 17 15 13 13 16 13 15 16 11
7 1 8 8 8 14 17 14 15 19 20 17 16 15 16 14 8 8 14 13 6 9 3 5 7 7 5 5 8 11 13 14 15 13 14 10 9 7 5 4 5 6 6 6 7 6 6 6 6 6 6 7 8 7 7 8 8 9 10 10 10 11 12 11 11 10 10 10 10 12 12 11 11 13 13 15 15 16 16 15 16 15 16 16 15 12
4 5 8 3 3 5 4 3 6 12 16 13 9 1 10 14 15 13 9 7 12 6 10 8 12 5 3 5 3 1 1 5 3 4 11 10 7 5 5 6 7 7 9 7 5 5 4 4 5 6 7 7 7 7 7 6 6 7 7 8 7 10 10 10 9 9 10 10 11 12 12 12 10 11 14 16 15 16 17 16 15 15 16 16 15 13
6 2 8 7 5 2 2 1 2 1 7 8 10 10 13 14 16 4 4 2 8 13 12 7 18 13 6 4 3 1 4 4 8 5 5 7 6 7 7 7 6 6 4 5 6 5 4 5 7 7 7 7 6 5 5 5 5 5 7 7 8 7 7 7 7 8 9 10 11 10 10 11 12 14 16 16 15 17 17 17 15 14 15 15 14 14
13 6 10 11 13 12 10 12 14 10 12 7 11 15 13 17 18 5 13 4 10 8 14 11 11 17 1 2 6 5 3 5 5 3 0 4 6 5 6 4 2 4 5 4 6 6 6 5 5 6 7 6 5 5 5 4 4 4 5 7 6 5 5 6 5 7 8 8 9 9 11 12 14 15 16 16 17 17 17 16 16 14 9 12 14 12
6 7 9 11 11 12 9 3 2 7 11 15 18 20 20 19 22 19 11 12 12 13 14 15 17 16 6 6 7 6 5 7 8 6 6 8 10 8 5 5 3 4 5 5 5 5 5 7 7 6 6 6 6 5 3 4 5 5 6 7 6 6 5 5 6 7 8 8 9 8 10 13 15 14 15 16 16 15 15 14 14 11 10 9 10 9
1 11 16 17 19 13 3 1 4 12 16 20 22 24 23 21 20 21 16 18 13 13 17 12 17 20 19 17 8 7 6 6 5 5 6 5 7 7 3 3 5 6 8 6 6 7 8 8 6 5 5 4 6 4 4 4 5 6 7 6 5 6 5 4 6 7 7 7 8 9 11 11 10 11 14 13 11 10 9 10 9 9 9 8 10 11
5 5 14 18 19 20 2 2 3 7 13 16 18 19 24 23 22 20 20 17 17 14 15 19 21 22 24 21 10 11 10 9 9 10 7 3 0 2 4 7 7 8 8 8 7 5 6 7 2 3 5 6 5 6 5 4 5 4 4 4 4 5 6 6 6 7 7 8 9 11 11 9 8 9 11 9 8 9 9 8 8 8 8 9 11 10
6 7 2 5 16 14 6 1 4 7 6 10 14 16 18 22 22 24 22 19 19 16 18 18 16 22 25 20 14 10 7 7 7 2 3 3 4 5 6 7 9 8 8 11 9 4 5 6 4 6 5 6 7 7 6 6 6 6 5 5 5 5 5 6 7 7 8 10 11 9 8 8 7 9 11 9 10 11 10 9 9 9 9 10 10 9
9 6 13 4 3 6 1 5 3 2 3 12 15 16 17 18 20 21 21 19 18 16 17 21 20 21 23 20 11 5 6 6 4 6 6 5 6 7 9 10 10 11 10 7 7 6 5 6 6 5 6 6 7 7 7 6 5 3 4 5 6 6 5 6 6 7 8 10 9 7 6 7 8 7 10 12 10 9 10 10 9 9 10 9 8 9
11 7 7 5 6 10 9 10 10 10 11 9 9 14 18 18 18 19 19 21 17 18 23 24 21 18 23 10 5 7 7 9 10 8 6 7 9 10 11 11 10 8 8 6 4 6 6 7 5 5 8 9 7 8 7 8 6 7 8 6 6 6 5 6 6 7 8 9 6 6 8 8 7 8 9 10 11 12 10 8 8 9 10 9 9 10
9 8 5 5 9 13 18 9 11 10 8 13 14 13 16 19 19 21 22 21 19 20 18 17 20 25 11 9 8 8 9 9 9 9 9 10 12 15 13 8 7 8 9 6 5 6 7 9 10 10 9 5 6 9 11 7 6 10 7 7 7 6 8 8 8 8 8 7 6 7 7 7 7 8 8 9 11 10 8 9 9 10 10 12 11 7
11 12 6 8 9 12 14 11 6 6 16 11 2 13 17 21 22 19 18 21 22 20 17 18 21 7 4 8 11 12 12 11 10 9 9 10 11 12 8 6 7 7 6 5 5 6 6 5 7 7 7 6 5 5 1 6 7 4 2 4 5 7 7 7 7 7 8 6 7 7 6 7 8 9 10 7 6 7 8 9 12 11 9 8 7 10
13 11 7 5 5 9 3 8 8 17 14 7 7 9 8 7 11 20 20 21 21 22 21 21 20 20 21 17 8 5 5 4 4 9 11 11 9 8 9 8 9 7 6 6 8 8 9 10 9 6 7 9 7 2 2 4 5 2 3 4 5 5 5 5 6 6 6 6 7 7 8 8 8 9 7 5 6 7 9 11 11 10 10 9 11 11
12 11 6 6 5 5 5 11 9 10 4 8 10 12 12 11 6 3 12 15 13 16 22 24 26 24 19 16 2 5 4 3 4 8 10 11 10 10 10 10 5 8 10 11 12 11 11 11 11 10 10 4 4 5 6 7 5 6 5 4 4 4 4 5 5 6 6 8 8 9 9 9 8 7 6 5 6 8 11 12 13 12 9 8 9 9
11 10 11 9 9 11 7 9 11 2 4 3 8 9 10 11 12 15 13 16 15 13 15 17 21 20 17 15 13 7 6 3 5 10 12 13 14 10 10 10 12 9 11 12 12 13 12 9 9 10 6 5 7 7 8 5 5 5 5 5 5 5 5 6 6 7 8 8 8 9 9 9 8 7 7 7 8 10 12 12 12 11 8 10 10 10
6 13 8 11 9 9 9 8 5 6 12 8 10 10 17 17 16 17 15 16 13 17 15 17 21 20 20 19 17 15 3 9 12 17 13 13 8 10 12 14 15 15 14 13 9 10 10 9 8 8 8 9 9 9 3 5 6 6 7 7 6 6 6 6 8 8 7 9 9 10 8 8 9 9 9 9 12 13 12 11 9 11 9 11 11 12
3 4 2 9 3 9 10 11 7 9 5 3 7 7 12 10 13 9 7 13 4 5 10 21 25 24 18 11 10 6 7 11 15 6 15 6 10 14 14 15 17 18 17 12 11 12 12 12 12 10 5 7 12 10 4 5 6 7 9 8 8 6 6 7 7 7 9 10 9 8 7 7 8 10 12 12 12 11 11 11 10 6 7 9 9 10
4 2 5 3 3 3 4 10 10 2 2 4 4 1 3 9 13 9 12 9 2 5 6 5 3 6 6 4 4 4 8 12 6 6 9 8 10 8 9 11 15 15 15 14 12 10 11 10 7 8 10 12 12 4 5 6 6 9 10 9 6 7 9 8 9 8 8 7 6 5 6 7 10 10 11 14 12 8 8 3 5 6 7 8 7 8
4 3 6 8 8 9 8 4 2 2 5 3 1 1 2 3 9 13 15 2 3 2 5 5 7 6 4 4 2 4 7 4 2 6 6 10 11 11 11 11 11 13 14 14 13 13 8 9 8 10 8 6 4 3 4 4 7 9 8 6 6 12 10 7 8 8 7 7 7 6 7 7 8 11 10 7 5 5 5 6 7 6 7 8 5 6
4 4 3 4 8 9 7 7 7 2 3 2 3 4 6 7 5 9 2 1 6 7 4 6 9 6 8 11 9 8 4 4 5 7 12 13 8 6 8 9 10 11 10 10 10 12 11 10 9 10 9 6 6 4 4 5 8 9 7 7 11 13 5 8 9 7 6 8 6 5 5 8 8 7 7 6 5 6 7 6 6 7 7 5 6 9
11 9 9 9 5 5 3 6 4 7 3 3 5 3 5 3 2 6 9 1 1 5 6 6 8 5 5 10 9 8 7 9 11 11 10 10 11 12 11 11 11 10 11 12 12 11 9 10 11 9 7 7 8 6 5 5 8 10 8 10 13 7 7 11 8 6 5 6 7 6 7 7 8 8 6 7 7 8 8 5 6 7 7 8 7 8
9 6 5 7 5 5 9 10 6 1 2 1 4 7 4 1 4 5 8 8 2 1 4 7 7 5 6 8 8 8 8 8 10 11 10 11 11 10 9 9 8 7 8 6 6 8 10 8 8 10 8 5 6 5 5 5 10 8 7 12 3 4 9 8 5 2 4 5 6 7 8 9 8 7 6 7 6 7 8 7 7 6 7 8 8 8
7 8 5 7 6 5 3 2 5 2 6 5 6 11 10 7 6 6 7 8 8 4 1 6 8 6 6 7 8 8 9 9 8 8 10 9 10 11 10 10 9 9 9 9 9 10 10 8 10 9 11 9 10 6 6 3 7 8 9 8 3 7 6 3 4 4 6 7 8 8 8 6 6 6 6 6 7 7 6 7 7 7 8 7 8 9
4 2 2 3 1 5 8 7 8 5 9 11 10 9 11 10 6 6 8 10 6 5 3 7 6 6 5 4 6 7 8 6 8 8 9 8 8 10 9 8 10 9 9 11 13 14 10 8 8 9 13 15 12 9 4 5 3 7 10 8 7 6 4 4 5 5 7 7 7 7 5 6 5 6 6 6 5 7 5 6 6 6 6 8 9 9
1 2 1 3 4 7 4 6 9 11 10 12 12 8 7 5 7 5 6 5 6 5 5 4 6 5 5 5 7 6 5 5 6 6 5 6 7 7 9 8 9 9 10 11 11 10 12 9 10 12 11 13 12 10 8 7 5 5 8 8 7 7 7 7 6 6 5 6 6 5 5 6 4 4 4 6 5 5 5 6 6 6 7 7 8 9
2 5 3 1 4 3 4 13 9 9 10 10 8 9 8 7 6 5 5 5 5 5 4 5 4 4 3 5 5 5 5 5 7 6 6 6 6 6 5 6 8 7 7 7 8 9 8 9 9 10 10 13 13 11 10 9 10 10 9 7 6 6 7 7 6 6 6 6 4 3 3 4 7 6 3 4 6 6 6 6 6 7 9 9 9 8
3 10 5 5 4 5 9 7 9 9 8 7 5 4 7 7 7 6 6 6 6 6 5 3 2 3 3 4 3 4 4 4 4 3 4 4 4 5 5 5 5 5 6 8 7 6 9 7 8 7 8 10 9 8 9 9 9 9 11 9 8 7 7 7 6 6 6 5 3 4 3 3 3 4 4 3 4 6 6 7 8 8 7 9 6 7
6 6 3 7 6 7 8 10 14 10 6 6 6 8 8 7 7 7 5 5 4 4 4 4 2 2 2 2 2 3 4 3 3 3 3 3 3 5 5 5 4 5 5 4 3 4 5 6 5 6 7 10 8 7 7 7 7 7 7 7 7 7 8 8 7 7 6 3 3 3 3 3 3 3 4 4 4 4 5 7 9 7 6 6 10 12
5 8 8 8 9 5 8 13 7 2 7 9 10 8 8 7 7 7 5 5 4 1 3 1 2 1 1 2 3 1 2 1 4 4 5 4 4 5 5 6 7 6 5 4 4 5 5 5 5 4 6 9 7 8 8 7 5 6 5 5 6 6 7 7 6 5 4 3 3 4 4 3 3 3 3 3 4 3 4 4 7 13 14 11 8 9
Wind_Direction
131 155 182 195 204 203 198 203 214 221 236 232 229 235 230 232 231 180 234 99 231 234 225 223 232 236 244 249 242 242 208 208 231 238 243 245 243 242 242 240 237 237 244 232 218 245 240 222 213 214 209 210 209 210 210 210 210 208 206 200 205 198 195 197 198 205 208 208 210 213 213 213 208 210 213 215 217 220 221 220 220 219 219 219 215 214
153 201 214 210 210 205 208 211 219 230 234 239 242 235 234 231 241 214 216 149 231 221 243 223 237 239 244 254 248 244 233 230 233 233 237 246 242 239 240 244 240 241 247 249 249 240 233 227 221 213 210 205 206 209 207 210 210 208 207 207 205 194 196 202 202 202 208 211 209 205 209 210 209 205 205 213 216 217 218 218 219 218 219 219 217 214
184 207 215 215 219 224 219 216 218 222 232 235 248 247 241 233 228 153 205 106 164 207 249 197 244 246 244 251 250 242 237 236 239 239 238 239 243 237 235 240 243 239 243 241 243 243 232 220 219 216 216 212 212 208 205 209 208 208 208 211 205 199 198 202 202 201 205 204 207 207 202 204 210 214 214 218 219 217 219 220 219 217 217 216 217 215
196 211 211 208 218 219 225 218 220 230 234 234 231 229 226 211 204 230 197 157 170 219 293 265 263 260 253 250 253 247 240 240 239 242 243 239 243 245 243 239 239 244 243 240 237 237 228 218 214 215 219 216 209 210 209 204 207 208 211 209 203 204 203 203 202 203 204 201 201 204 208 195 201 210 215 220 222 224 222 223 218 219 216 215 215 214
203 185 202 198 211 213 219 213 215 224 234 229 233 236 232 219 206 223 206 154 160 248 308 293 277 266 242 242 248 238 229 237 238 243 243 243 240 244 251 253 246 250 247 240 243 242 238 219 213 214 216 209 206 207 206 202 201 205 208 204 202 206 207 205 201 198 199 191 181 185 201 203 215 225 222 220 225 223 222 222 219 218 214 214 215 216
209 178 114 181 202 208 216 222 214 208 230 231 230 232 236 214 219 199 127 162 213 244 193 206 280 262 243 236 239 242 229 221 221 232 237 236 232 232 241 246 245 241 240 240 240 240 235 232 227 217 214 206 210 211 209 204 203 203 204 201 203 208 208 204 201 195 194 198 196 190 208 205 210 218 214 217 217 213 215 217 217 213 213 214 216 216
212 183 183 186 195 206 218 227 219 203 223 228 225 212 229 211 217 191 172 174 236 243 199 181 234 267 197 235 225 227 234 237 221 222 235 236 235 232 233 236 238 232 232 230 238 243 242 237 227 220 209 210 214 216 208 202 206 206 203 202 203 204 206 201 197 190 188 197 197 197 201 201 202 208 216 217 215 210 207 211 210 211 211 214 215 217
170 199 202 222 206 208 219 223 210 204 216 233 226 211 211 217 213 196 188 205 238 60 91 224 221 266 274 248 237 220 230 234 237 232 230 235 237 239 239 235 234 230 227 226 225 232 236 237 228 225 215 209 214 214 196 199 204 204 207 204 204 205 205 201 190 188 189 196 199 200 203 205 209 209 214 206 209 206 199 197 206 212 214 214 216 216
185 182 195 209 202 213 224 218 191 202 218 229 222 205 204 210 218 197 200 214 231 212 248 194 188 268 256 260 208 221 247 243 240 234 228 227 232 236 237 238 236 230 228 225 229 230 232 233 230 225 221 213 215 210 197 203 203 203 207 206 205 206 204 203 192 193 196 200 201 200 202 208 215 216 219 209 200 197 196 196 193 199 212 214 214 215
190 192 194 196 189 215 211 213 206 191 221 226 191 199 209 200 212 202 209 218 184 209 241 225 174 240 267 240 220 201 228 246 242 232 233 230 231 233 238 236 233 233 229 227 231 234 233 233 229 225 226 222 210 208 209 214 207 203 200 203 205 211 209 206 203 199 202 201 202 204 206 209 212 211 215 213 206 197 197 203 201 202 207 216 214 215
143 210 195 189 202 207 204 206 196 210 219 148 180 184 101 67 44 1 285 207 195 227 234 217 179 206 268 247 218 199 221 224 237 238 238 233 235 238 238 229 221 223 223 220 225 233 236 237 234 206 219 233 228 191 208 214 211 204 200 202 205 210 208 207 207 202 202 202 202 209 209 210 211 207 207 208 214 203 198 205 204 203 207 209 217 213
199 110 172 198 184 206 187 198 209 212 198 161 183 181 154 185 87 139 92 233 211 235 238 209 199 186 239 267 207 220 226 189 217 235 233 230 233 233 236 235 235 231 224 224 224 232 235 237 226 211 227 225 220 195 202 211 207 205 203 203 208 211 209 207 203 200 203 201 207 212 213 214 212 206 203 210 213 203 203 203 204 201 201 208 218 217
222 204 166 169 189 174 176 182 211 188 166 189 178 175 179 177 143 214 151 208 212 222 233 209 176 200 228 241 65 207 228 207 206 225 231 237 241 235 231 232 227 223 226 225 223 228 230 225 228 217 225 220 211 204 207 208 204 206 206 202 205 209 204 204 199 201 201 202 206 208 212 215 212 212 215 215 217 209 205 203 203 197 201 204 216 219
218 204 191 184 170 190 166 189 166 182 183 196 187 178 186 182 183 210 180 64 269 268 254 164 168 224 247 268 240 245 250 214 216 222 233 234 239 238 233 229 226 225 231 235 232 232 233 229 225 221 221 214 215 215 210 205 202 206 208 207 208 212 200 200 199 200 201 205 207 206 209 210 207 213 213 217 216 212 209 205 204 202 201 201 208 209
198 204 208 169 204 162 193 198 178 170 173 198 191 191 200 188 188 199 188 189 196 211 208 172 154 229 223 223 27 277 249 242 213 217 225 241 259 281 337 345 291 258 240 228 233 232 231 231 228 224 222 220 220 221 215 208 209 208 211 211 213 214 205 200 202 200 202 205 206 206 207 208 210 212 211 216 215 212 210 208 204 205 204 204 204 204
215 239 161 187 170 167 191 195 181 172 192 197 198 216 212 207 171 224 201 203 202 208 153 198 209 263 236 7 273 222 233 259 228 248 258 261 255 250 255 248 242 238 237 226 236 242 244 244 244 236 232 228 229 226 222 217 212 209 216 213 216 214 209 204 204 206 206 206 204 204 204 206 208 209 211 214 213 214 211 208 205 206 204 207 207 203
170 225 151 179 202 184 188 183 189 163 203 169 194 211 212 326 213 119 52 13 50 266 250 137 274 259 299 273 246 251 202 243 217 221 217 239 237 227 238 239 236 233 235 229 229 240 247 240 234 235 232 229 226 224 222 222 214 217 218 216 219 219 216 215 208 210 207 207 204 205 204 204 205 207 208 211 211 211 211 210 207 208 209 207 208 204
198 195 178 168 191 198 191 186 177 190 176 140 211 197 66 285 357 166 206 140 205 218 224 163 217 249 216 276 210 202 215 235 225 214 221 234 233 231 240 235 237 238 240 241 242 244 243 240 239 229 224 227 226 221 221 223 219 219 221 220 220 217 216 217 213 211 210 207 209 207 205 206 207 208 211 213 215 211 209 208 210 208 210 207 205 203
183 216 196 188 185 187 184 174 196 203 93 198 202 163 186 179 199 191 235 206 182 212 232 214 219 242 214 232 102 182 201 215 231 226 221 228 220 234 252 246 229 240 241 237 238 239 233 227 230 223 223 225 227 226 223 218 211 214 219 224 226 226 222 219 215 211 212 211 209 208 207 205 207 210 211 212 213 212 209 210 208 209 212 211 205 203
225 232 136 205 189 150 169 179 203 189 199 301 334 212 314 28 211 192 201 51 173 223 200 244 212 247 206 235 211 192 185 209 230 226 227 235 241 234 238 246 213 214 224 233 238 238 238 238 236 229 227 228 225 223 217 214 211 218 215 215 222 229 228 222 215 208 210 210 211 209 208 209 209 209 210 210 207 210 211 210 208 213 212 212 205 208
249 203 240 172 169 154 201 182 199 179 180 188 200 196 210 221 308 64 184 213 176 204 226 254 248 239 247 181 187 218 198 184 215 211 217 223 232 233 235 234 222 209 231 240 242 237 234 237 239 234 232 237 236 229 222 212 217 217 207 213 212 214 218 220 219 213 213 208 211 209 210 211 207 210 208 208 212 217 216 213 215 227 223 212 221 204
229 193 219 169 202 195 191 192 194 188 182 186 185 195 189 187 186 191 209 182 221 205 210 215 244 245 256 158 184 208 205 200 206 203 216 218 222 218 230 260 201 226 228 225 229 234 235 236 238 244 241 247 245 237 228 222 216 218 214 210 207 211 216 214 213 208 207 206 207 210 212 212 211 212 211 218 225 225 224 217 217 223 216 219 222 201
185 175 215 206 219 194 196 204 202 193 187 195 190 200 192 203 197 205 201 193 202 219 238 248 308 266 131 155 180 193 201 207 215 206 224 230 236 240 214 216 228 235 240 212 216 225 236 240 237 236 238 234 230 231 221 218 215 221 223 215 206 202 211 207 208 202 203 207 208 212 212 210 210 211 208 218 222 221 220 221 221 221 220 222 223 210
68 210 190 247 246 299 339 348 162 197 191 204 223 350 193 205 202 209 215 183 201 177 212 222 244 256 121 189 194 274 315 241 225 176 220 222 225 233 223 212 224 224 233 234 238 248 262 282 286 279 258 237 227 224 218 211 214 222 226 222 212 211 210 202 202 198 200 205 209 210 209 209 206 205 215 219 220 221 220 220 220 220 220 222 224 217
214 178 202 168 193 201 295 10 251 108 186 205 197 202 199 199 205 209 73 20 205 206 213 202 237 251 198 145 137 181 235 217 236 203 220 240 226 241 232 218 216 233 257 256 252 251 261 264 264 259 259 251 235 213 202 195 207 223 231 227 221 218 209 203 196 195 200 204 207 204 207 211 214 217 215 218 219 220 220 219 219 218 216 218 218 215
201 175 191 208 195 191 194 200 194 184 198 183 206 198 201 194 195 144 207 170 224 187 204 221 243 249 104 142 169 200 197 240 234 243 188 255 267 255 251 257 288 277 272 290 294 298 271 253 254 261 264 266 249 220 189 172 181 211 233 233 230 220 203 209 196 202 200 202 206 205 205 212 214 214 216 216 221 222 221 221 222 219 207 210 215 211
217 198 212 228 224 217 213 193 357 181 166 193 194 196 196 200 197 198 194 197 202 200 218 220 227 242 147 189 198 198 201 210 209 209 213 224 238 244 265 279 263 264 268 257 256 266 281 271 265 269 268 263 261 235 202 169 177 194 214 226 219 218 207 199 199 204 205 205 206 206 204 208 214 213 216 218 221 224 225 223 220 216 208 204 213 209
196 221 207 210 233 256 343 118 145 157 189 198 193 198 198 199 198 199 200 209 194 206 229 228 237 249 246 235 167 187 194 232 239 205 217 230 244 243 251 285 276 261 249 242 242 241 245 242 225 221 228 227 239 227 205 202 183 183 197 211 200 196 202 198 200 203 207 205 208 214 212 209 208 212 219 220 219 218 220 220 217 214 210 202 208 213
148 252 225 209 226 228 184 124 107 187 203 209 207 195 198 199 199 204 212 214 200 209 220 221 222 235 248 242 198 182 191 200 211 223 220 214 292 261 240 250 257 248 255 244 244 238 243 252 213 228 212 209 210 222 213 201 201 200 211 215 204 189 201 191 194 203 204 206 213 218 214 206 204 215 222 216 219 216 217 215 214 210 207 203 211 212
138 222 307 283 232 233 230 63 125 210 212 226 224 218 212 208 204 205 212 214 211 214 227 245 237 239 246 246 230 191 168 199 226 275 360 288 220 216 235 249 250 259 254 264 266 239 252 266 252 234 223 216 214 212 204 206 207 203 197 203 190 201 194 178 203 202 204 210 217 218 207 207 204 212 221 216 216 218 213 213 212 208 209 212 210 209
189 204 166 176 270 227 211 284 305 324 271 224 215 214 211 206 208 211 217 223 219 230 242 249 250 251 249 246 230 166 166 185 242 230 233 255 256 230 229 232 241 246 244 238 262 262 238 235 239 253 247 235 223 223 220 217 200 177 205 212 198 202 187 187 208 210 213 221 222 215 203 208 213 204 215 222 219 217 211 206 208 210 213 213 206 206
177 226 142 166 252 261 235 243 265 291 287 280 259 219 208 205 209 207 216 218 203 210 224 237 244 245 255 235 152 149 160 187 210 221 221 234 232 232 230 229 235 254 262 247 268 278 268 254 232 222 230 230 226 222 221 216 197 187 217 192 190 182 165 191 212 215 223 231 224 211 212 213 208 207 216 219 220 218 214 210 208 212 211 210 206 208
179 209 178 161 229 249 251 225 239 255 290 275 247 224 204 206 206 210 220 220 212 210 220 226 237 237 256 104 206 186 178 193 196 199 219 230 230 227 228 213 221 233 245 251 256 252 248 250 234 223 219 210 211 210 218 198 179 209 202 181 183 157 179 190 197 211 229 233 226 224 221 214 211 216 216 216 221 215 205 206 211 214 211 213 209 190
189 204 196 167 213 245 241 230 205 225 242 230 149 199 206 201 200 210 216 218 215 210 224 225 235 249 48 243 232 231 208 201 201 209 210 216 230 235 233 213 220 231 265 271 256 259 267 275 260 243 232 230 238 229 157 187 215 229 168 160 156 180 186 186 197 202 219 224 228 231 227 221 218 220 221 207 201 210 200 187 213 215 215 211 194 203
192 196 205 163 200 244 235 142 193 231 241 239 194 162 187 262 239 219 222 219 214 215 228 242 248 248 244 241 237 257 265 218 190 235 237 243 253 253 237 191 206 223 249 264 258 244 240 243 260 276 258 237 232 218 176 239 226 187 168 166 173 190 185 195 190 205 220 226 223 223 226 224 223 229 227 198 194 212 217 219 223 220 214 207 206 207
186 191 171 210 202 243 194 169 219 244 224 230 168 168 169 176 199 313 274 257 236 222 224 237 241 246 248 254 185 106 106 137 243 244 243 242 237 243 253 249 177 184 228 227 233 240 236 228 231 232 237 236 197 212 201 214 186 190 198 161 185 177 197 189 202 216 212 223 223 220 219 214 221 226 224 206 200 215 222 222 222 222 213 209 215 218
189 180 185 207 183 223 191 194 213 13 287 126 164 191 167 189 195 207 240 244 230 233 229 245 254 258 262 262 258 235 116 144 244 244 227 230 236 253 263 272 264 233 215 228 224 235 237 237 235 244 240 222 215 206 203 188 164 189 166 178 193 180 187 192 209 216 216 222 222 217 210 205 208 210 205 201 205 216 221 220 221 223 210 214 215 212
186 187 183 199 214 206 222 224 214 213 243 216 205 189 187 194 196 197 202 252 221 212 224 240 246 247 247 248 246 244 147 275 264 260 238 213 202 233 242 255 255 252 244 236 233 242 249 246 249 250 236 253 253 242 156 155 172 185 203 204 177 183 197 197 221 218 212 225 223 217 198 196 200 202 199 197 210 216 220 220 219 218 201 212 213 218
5 108 89 202 202 191 218 231 219 223 232 358 202 201 201 202 203 187 178 237 53 353 231 222 230 234 237 251 258 235 214 241 249 269 1 21 170 200 225 238 243 245 246 239 227 236 240 243 243 253 240 238 254 254 187 202 176 188 216 210 197 195 203 215 228 227 220 226 223 213 191 193 197 204 201 210 216 212 219 216 217 214 196 216 221 230
110 138 134 184 229 249 209 213 228 203 253 247 240 286 161 132 118 126 203 220 114 351 1 346 322 34 49 39 89 159 212 242 289 6 323 351 324 310 282 256 246 249 253 253 241 223 239 247 257 257 248 247 255 277 223 201 192 217 227 223 197 205 220 218 226 228 230 240 237 228 209 204 212 210 208 217 224 219 221 208 208 202 202 212 212 222
159 154 188 199 205 217 217 266 279 264 283 231 247 44 344 91 133 186 208 134 203 19 23 61 65 45 70 79 126 167 47 51 2 274 328 2 9 11 4 354 344 338 331 331 339 355 339 324 302 283 303 345 332 267 235 180 210 228 226 217 209 229 226 224 237 243 238 245 252 237 221 217 214 216 220 219 219 211 210 207 208 197 199 207 206 213
139 139 190 211 219 213 205 219 233 247 222 142 255 118 176 126 202 207 105 119 95 88 59 83 82 54 67 69 77 79 58 27 12 21 29 22 26 30 11 357 354 353 344 346 359 12 352 344 334 330 343 334 311 283 231 214 230 239 226 209 230 230 229 244 241 242 258 252 244 241 229 230 236 228 224 213 203 207 211 207 198 196 198 200 201 210
173 164 189 191 192 213 188 217 218 232 226 126 167 57 341 199 209 104 123 50 78 108 104 77 79 66 67 87 78 78 60 46 37 31 28 23 29 25 19 19 19 7 358 355 356 359 360 352 349 346 346 334 323 317 298 250 241 246 234 234 238 220 227 235 245 240 232 239 241 230 229 229 224 222 220 214 205 207 218 196 193 194 190 192 198 209
159 176 180 210 184 182 193 201 209 192 62 324 211 182 167 317 81 115 117 118 123 117 93 91 71 66 65 76 77 71 59 51 38 25 24 26 24 16 13 20 16 17 9 4 6 359 354 345 343 341 343 323 303 314 329 304 285 285 277 263 331 240 244 252 257 234 234 236 236 232 230 227 223 220 214 213 207 210 210 199 194 194 197 192 197 207
197 192 174 191 172 199 210 171 105 106 74 61 99 92 97 75 64 78 95 104 121 87 298 87 88 76 69 76 69 56 55 46 44 30 33 22 20 18 12 10 16 12 4 0 1 358 359 359 339 335 336 342 342 343 328 299 284 287 283 286 289 261 283 275 258 237 236 234 230 232 238 233 228 216 212 207 198 206 204 203 190 198 204 193 203 205
4 321 11 86 102 107 52 79 126 96 101 94 77 89 100 99 76 103 109 104 92 111 104 103 101 95 82 69 79 54 54 41 36 31 26 20 13 11 10 9 7 8 7 5 1 2 351 349 349 352 352 343 352 351 356 332 300 288 281 302 322 326 318 298 276 253 247 249 249 246 235 229 230 223 217 210 205 210 204 195 189 199 193 201 209 208
231 235 57 144 160 150 171 160 132 129 117 112 108 95 77 90 123 128 109 110 130 142 128 121 121 107 95 79 78 75 53 41 42 41 24 13 10 4 7 6 4 5 2 357 353 351 351 356 354 354 352 345 342 348 344 339 317 279 289 301 307 313 308 300 279 268 260 254 258 257 242 238 226 212 206 209 211 210 211 202 198 199 198 196 203 207
220 191 90 142 138 184 123 144 145 132 133 137 137 129 126 124 122 135 133 143 148 149 135 136 140 119 129 81 72 68 51 37 37 25 15 8 2 1 355 359 351 347 357 353 342 348 345 355 354 349 350 344 339 341 339 338 335 330 324 314 316 312 306 293 282 277 277 270 261 259 235 239 244 238 223 202 200 205 208 210 204 207 208 199 198 196
106 144 183 164 121 98 89 105 121 110 115 140 142 128 135 148 145 150 168 160 167 147 145 152 113 113 98 97 114 87 70 51 38 19 1 336 338 350 345 340 341 333 328 348 346 344 344 339 342 341 341 332 333 338 334 333 333 332 331 327 325 324 311 299 296 285 281 279 272 261 253 244 241 231 239 220 216 225 214 199 199 211 226 222 212 210
129 166 157 124 126 176 176 170 158 136 170 180 177 167 162 160 153 153 165 161 166 143 153 123 127 169 135 151 104 67 56 27 360 341 340 311 305 301 318 319 318 327 334 324 322 317 325 331 332 331 333 333 338 337 333 333 334 329 326 326 326 330 325 318 313 306 297 287 283 274 261 250 240 227 233 233 230 230 249 252 247 241 226 227 214 227
172 165 155 174 184 191 145 159 173 87 115 152 166 174 163 169 150 151 159 168 172 189 159 104 60 49 295 257 217 93 72 17 321 321 309 306 301 300 304 321 322 327 327 322 325 328 331 325 327 322 332 332 336 335 337 339 338 330 328 329 325 332 324 326 316 307 302 310 297 299 294 281 265 247 237 240 236 239 246 252 234 235 244 251 243 224